Zurück zum Katalog

ONEWEB-0457

AktivKommunikationPO
NORAD 51647·PAYLOAD·🇬🇧 United Kingdom

Gestartet Feb 10, 2022 von Guiana Space Centre

Loading…

Nächste Überflüge (nächste 24 Stunden)

TLE

AktuellSource: CelesTrak SupGP

Epoche: Sep 14, 2026, 23:42 UTC

1 51647C 22012AB  26257.98799026 -.00002128  00000+0 -61028-2 0  2572
2 51647  87.8896  18.3920 0001516 114.4156 358.7275 13.10369701    18

Verfolge ONEWEB-0457 in Echtzeit mit AllMySat

Download on the App Store